Location: Asbacherhof
(48.8543°N, 10.7903°E)
Time: 16:29:47
(UTC+00:00)

SL-16 R/B - Pass Details

Date: 26 May 2022
Orbit: 839 x 850 km, 71.0° (Epoch: 07 July)

Event Time Altitude Azimuth Distance (km) Brightness Sun altitude
Exits shadow 00:16:38 17° 144° (SE) 2,007 3.8 -18.7°
Maximum altitude 00:19:33 26° 103° (ESE) 1,619 3.7 -18.5°
Drops below altitude 10° 00:24:06 10° 49° (NE) 2,474 5.5 -18.3°
Sets 00:26:55 0° 37° (NE) 3,416 6.7 -18.2°
